Weather History for KBED - January, 2013

Change the Weather History Date:

Sunday, January 6, 2013

  Actual Average Record
Temperature  
Mean Temperature 32 °F -  
Max Temperature 42 °F 34 °F 70 °F (2007)
Min Temperature 21 °F 15 °F -4 °F (1972)
Degree Days  
Heating Degree Days 34    
Moisture  
Dew Point 25 °F    
Average Humidity 81    
Maximum Humidity 93    
Minimum Humidity 55    
Precipitation  
Precipitation 0.00 in - - ()
Sea Level Pressure  
Sea Level Pressure 30.06 in    
Wind  
Wind Speed 4 mph (WSW)    
Max Wind Speed 16 mph    
Max Gust Speed 26 mph    
Visibility 10 miles    
Events Snow    
Averages and records for this station are not official NWS values.
T = Trace of Precipitation, MM = Missing Value Source: NWS Daily Summary

Daily Weather History Graph

Daily Weather History Graph

Search for Another Location

Airport or City:

Trip Planner

Search our weather history database for the weather conditions in past years. The results will help you decide how hot, cold, wet, or windy it might be!

Date:

Astronomy

Jan. 06, 2013 Rise Set
Actual Time 7:14 AM EST 4:27 PM EST
Civil Twilight 6:43 AM EST 4:59 PM EST
Nautical Twilight 6:07 AM EST 5:34 PM EST
Astronomical Twilight 5:33 AM EST 6:08 PM EST
Moon 1:22 AM EST (1/6) 11:55 AM EST (1/6)
Length of Visible Light 10h 16m
Length of Day
9h 13m
Waning Crescent, 33% of the Moon is Illuminated
Jan 6
Waning Crescent
Jan 11
New
Jan 18
First Quarter
Jan 26
Full
Feb 3
Last Quarter

Hourly Weather History & Observations

Time (EST) Temp. Windchill Dew Point Humidity Pressure Visibility Wind Dir Wind Speed Gust Speed Precip Events Conditions
12:56 AM 21.0 °F 16.2 °F 17.1 °F 85% 30.22 in 10.0 mi West 3.5 mph - N/A   Clear
1:56 AM 21.9 °F - 18.0 °F 85% 30.26 in 10.0 mi Calm Calm - N/A   Clear
2:56 AM 21.2 °F - 19.4 °F 93% 30.18 in 10.0 mi Calm Calm - N/A   Mostly Cloudy
3:56 AM 24.1 °F - 19.9 °F 84% 30.19 in 10.0 mi Calm Calm - N/A   Overcast
4:56 AM 25.0 °F - 21.0 °F 85% 30.16 in 7.0 mi Calm Calm - 0.00 in Snow Light Snow
5:56 AM 25.0 °F - 23.0 °F 92% 30.13 in 7.0 mi Calm Calm - 0.00 in Snow Light Snow
6:56 AM 26.1 °F 21.9 °F 24.1 °F 92% 30.12 in 7.0 mi Variable 3.5 mph - 0.00 in Snow Light Snow
7:56 AM 28.0 °F 22.8 °F 26.1 °F 92% 30.11 in 10.0 mi SSW 4.6 mph - 0.00 in   Overcast
8:56 AM 30.0 °F 23.2 °F 27.0 °F 88% 30.10 in 10.0 mi SW 6.9 mph - N/A   Partly Cloudy
9:56 AM 33.1 °F 24.4 °F 27.0 °F 78% 30.09 in 10.0 mi SW 11.5 mph - N/A   Clear
10:56 AM 36.0 °F 29.6 °F 26.1 °F 67% 30.06 in 10.0 mi SW 8.1 mph - N/A   Clear
11:56 AM 37.9 °F 30.9 °F 27.0 °F 65% 30.01 in 10.0 mi SW 10.4 mph - N/A   Clear
12:56 PM 39.9 °F 33.4 °F 27.0 °F 60% 29.99 in 10.0 mi WSW 10.4 mph - N/A   Clear
1:56 PM 42.1 °F 34.2 °F 27.0 °F 55% 29.98 in 10.0 mi WNW 16.1 mph 26.5 mph N/A   Clear
2:56 PM 41.0 °F 33.9 °F 27.0 °F 57% 29.98 in 10.0 mi West 12.7 mph 18.4 mph N/A   Scattered Clouds
3:56 PM 37.4 °F 32.8 °F 26.6 °F 65% 29.93 in 10.0 mi WNW 5.8 mph - N/A   Clear
4:56 PM 35.1 °F 32.2 °F 26.1 °F 70% 29.99 in 10.0 mi SW 3.5 mph - N/A   Clear
5:56 PM 30.0 °F - 26.1 °F 85% 29.99 in 10.0 mi Calm Calm - N/A   Overcast
6:56 PM 28.4 °F 24.6 °F 26.6 °F 93% 29.95 in 10.0 mi SW 3.5 mph - N/A   Overcast
7:56 PM 30.0 °F - 27.0 °F 88% 30.01 in 10.0 mi Calm Calm - N/A   Overcast
8:56 PM 30.0 °F - 27.0 °F 88% 30.00 in 10.0 mi Calm Calm - N/A   Overcast
9:56 PM 28.0 °F - 26.1 °F 92% 30.00 in 10.0 mi Calm Calm - N/A   Overcast
10:56 PM 30.0 °F - 27.0 °F 88% 29.99 in 10.0 mi Calm Calm - N/A   Overcast
11:56 PM 30.0 °F 24.1 °F 26.1 °F 85% 29.99 in 10.0 mi SW 5.8 mph - N/A   Clear